Weather History for Greensboro, NC

Change the Weather History Date:

Wednesday, March 21, 2012

  Actual Average Record
Temperature  
Mean Temperature 65 °F 51 °F  
Max Temperature 75 °F 63 °F 89 °F (1968)
Min Temperature 54 °F 40 °F 15 °F (1965)
Degree Days  
Heating Degree Days 0 14  
Month to date heating degree days 179 348  
Since 1 July heating degree days 2601 3203  
Cooling Degree Days 0 0  
Month to date cooling degree days 12 0  
Year to date cooling degree days 12 0  
Growing Degree Days 14 (Base 50)    
Moisture  
Dew Point 57 °F    
Average Humidity 77    
Maximum Humidity 100    
Minimum Humidity 53    
Precipitation  
Precipitation 0.00 in 0.12 in 1.71 in (1961)
Month to date precipitation 1.38 2.52  
Year to date precipitation 5.05 8.54  
Snow  
Snow 0.00 in 0.00 in 2.00 in (1914)
Month to date snowfall 0.0 0.7  
Since 1 July snowfall 1.6 7.4  
Snow Depth 0.00 in    
Sea Level Pressure  
Sea Level Pressure 30.24 in    
Wind  
Wind Speed 4 mph (SE)    
Max Wind Speed 14 mph    
Max Gust Speed 17 mph    
Visibility 5 miles    
Events Fog    
T = Trace of Precipitation, MM = Missing Value Source: NWS Daily Summary

Daily Weather History Graph

Daily Weather History Graph

Search for Another Location

Airport:

Trip Planner

Search our weather history database for the weather conditions in past years. The results will help you decide how hot, cold, wet, or windy it might be!

Date:

Astronomy

Mar. 21, 2012 Rise Set
Actual Time 7:21 AM EDT 7:32 PM EDT
Civil Twilight 6:55 AM EDT 7:58 PM EDT
Nautical Twilight 6:25 AM EDT 8:28 PM EDT
Astronomical Twilight 5:55 AM EDT 8:58 PM EDT
Moon 6:30 AM EDT (3/21) 6:57 PM EDT (3/21)
Length of Visible Light 13h 02m
Length of Day
12h 11m
Waning Crescent, 1% of the Moon is Illuminated
Mar 21
Waning Crescent
Mar 22
New
Mar 30
First Quarter
Apr 6
Full
Apr 13
Last Quarter

Hourly Weather History & Observations

Time (EDT) Temp. Dew Point Humidity Pressure Visibility Wind Dir Wind Speed Gust Speed Precip Events Conditions
12:54 AM 60.1 °F 59.0 °F 96% 30.23 in 10.0 mi ENE 5.8 mph - N/A   Overcast
1:54 AM 60.1 °F 57.9 °F 93% 30.22 in 9.0 mi Calm Calm - N/A   Partly Cloudy
2:54 AM 59.0 °F 59.0 °F 100% 30.22 in 6.0 mi Calm Calm - N/A   Scattered Clouds
3:48 AM 57.2 °F 57.2 °F 100% 30.23 in 5.0 mi Calm Calm - N/A   Partly Cloudy
3:54 AM 57.9 °F 57.9 °F 100% 30.21 in 4.0 mi Calm Calm - N/A   Scattered Clouds
4:13 AM 57.2 °F 55.4 °F 94% 30.23 in 0.8 mi Calm Calm - N/A   Mostly Cloudy
4:37 AM 57.2 °F 57.2 °F 100% 30.23 in 0.8 mi Calm Calm - N/A   Scattered Clouds
4:54 AM 55.9 °F 55.9 °F 100% 30.21 in 0.8 mi Calm Calm - N/A   Scattered Clouds
5:20 AM 55.4 °F 55.4 °F 100% 30.22 in 0.8 mi Calm Calm - N/A   Mostly Cloudy
5:54 AM 55.9 °F 55.9 °F 100% 30.22 in 0.8 mi Calm Calm - N/A   Mostly Cloudy
6:54 AM 54.0 °F 54.0 °F 100% 30.24 in 0.8 mi ENE 3.5 mph - N/A   Mostly Cloudy
7:47 AM 53.6 °F 53.6 °F 100% 30.27 in 0.2 mi East 4.6 mph - N/A Fog Fog
7:54 AM 55.0 °F 55.0 °F 100% 30.26 in 0.2 mi East 3.5 mph - N/A Fog Fog
8:01 AM 55.4 °F 55.4 °F 100% 30.27 in 0.2 mi East 3.5 mph - N/A Fog Fog
8:36 AM 57.2 °F 57.2 °F 100% 30.29 in 0.2 mi Calm Calm - N/A Fog Fog
8:54 AM 57.9 °F 57.9 °F 100% 30.28 in 0.2 mi ENE 3.5 mph - N/A Fog Fog
9:16 AM 59.0 °F 59.0 °F 100% 30.29 in 1.5 mi ENE 4.6 mph - N/A   Overcast
9:54 AM 60.1 °F 60.1 °F 100% 30.29 in 1.8 mi Calm Calm - N/A   Overcast
10:28 AM 60.8 °F 60.8 °F 100% 30.31 in 3.0 mi Calm Calm - N/A   Mostly Cloudy
10:43 AM 62.6 °F 60.8 °F 94% 30.31 in 3.0 mi NE 3.5 mph - N/A   Mostly Cloudy
10:54 AM 64.9 °F 61.0 °F 87% 30.30 in 5.0 mi Calm Calm - N/A   Mostly Cloudy
11:54 AM 68.0 °F 60.1 °F 76% 30.30 in 10.0 mi Calm Calm - N/A   Mostly Cloudy
12:54 PM 71.1 °F 60.1 °F 68% 30.28 in 10.0 mi Variable 3.5 mph - N/A   Mostly Cloudy
1:54 PM 72.0 °F 59.0 °F 64% 30.25 in 10.0 mi Variable 3.5 mph - N/A   Scattered Clouds
2:54 PM 73.0 °F 60.1 °F 64% 30.22 in 10.0 mi South 8.1 mph - N/A   Mostly Cloudy
3:54 PM 73.9 °F 59.0 °F 59% 30.20 in 10.0 mi SE 8.1 mph - N/A   Mostly Cloudy
4:54 PM 75.0 °F 57.0 °F 53% 30.18 in 10.0 mi South 12.7 mph 16.1 mph N/A   Scattered Clouds
5:54 PM 73.9 °F 55.9 °F 53% 30.19 in 10.0 mi SSW 9.2 mph - N/A   Partly Cloudy
6:54 PM 73.0 °F 55.9 °F 55% 30.19 in 10.0 mi South 5.8 mph - N/A   Partly Cloudy
7:54 PM 70.0 °F 54.0 °F 57% 30.19 in 10.0 mi South 4.6 mph - N/A   Partly Cloudy
8:54 PM 68.0 °F 54.0 °F 61% 30.21 in 10.0 mi SSE 3.5 mph - N/A   Clear
9:54 PM 66.0 °F 55.9 °F 70% 30.24 in 10.0 mi SSE 12.7 mph - N/A   Partly Cloudy
10:54 PM 63.0 °F 55.9 °F 78% 30.25 in 10.0 mi South 6.9 mph - N/A   Clear
11:54 PM 63.0 °F 57.9 °F 84% 30.25 in 10.0 mi SSE 8.1 mph - N/A   Clear